User: anonymous   Login
Location: El Corozo
(10.5833°N, 66.9667°W)
Time: 12:27:56
(UTC+00:00)
Language:

Cosmos 2278 Rocket - Orbit

View from above orbital plane
View from above orbital plane
View from above satellite
View from above satellite

Ground track
Ground track

The orbit data is extracted from the following two-line orbital elements,

1 23088U 94023B   24206.16115433 -.00000173  00000-0 -64718-4 0  9990
2 23088  70.9978 237.2309 0001562 166.0721 194.0445 14.14859124562409
Epoch (UTC): 24 July 2024 03:52:03
Eccentricity: 0.0001562
inclination: 70.9978°
perigee height: 841 km
apogee height: 844 km
right ascension of ascending node: 237.2309°
argument of perigee: 166.0721°
revolutions per day: 14.14859124
mean anomaly at epoch: 194.0445°
orbit number at epoch: 56240

The dashed part of the orbit path shows where the satellite is in the earth's shadow,  

DLR